HYLAS 2

Last updated on Jan. 18, 2020, 4:38 a.m. UTC

1 38741U 12043B   20017.52246028  .00000150  00000-0  00000-0 0  9998
2 38741   0.0384 262.6981 0001800  35.1331  37.6607  1.00271128 27278
UTC
Height (km)
Latitude
Longitude
Inclination
Orbital Period
UTC large
Height (km)
Speed (km/s)
/
Latitude / Longitude
Inclination (degrees)
Orbital Period (minutes)
Azimuth
Elevation
Range (km)
Doppler Factor
iOS Compass Heading
iOS Angle

Next 30 passes for location: Hong Kong

Rise time Rise Azimuth (degrees) Set time Set Azimuth (degrees) Duration Max altitude (degrees)

No matching passes for this satellites